Location: Zagreb
(45.8000°N, 16.0000°E)
Time: 20:48:23
(UTC+01:00)

YUBILEINY - Pass Details

Date: 03 November 2020
Orbit: 1478 x 1509 km, 82.5° (Epoch: 01 December)

Event Time Altitude Azimuth Distance (km) Brightness Sun altitude
Rises 22:32:04 0° 344° (NNW) 4,610 ? -56.5°
Reaches altitude 10° 22:35:20 10° 334° (NNW) 3,626 ? -56.8°
Enters shadow 22:37:36 18° 324° (NW) 3,036 ? -57.0°
